Royal Flush POKER88 Online - DEWA POKER Indonesia Terpercaya

Jackpot

Texas Poker Multi Jackpot System

Kini Telah hadir Jackpot SUPER ROYAL FLUSH

Kini Telah hadir Jackpot 2000 (khusus table VIP keatas).

Ikutilah global jackpot yang tersedia di system kami, dengan system jackpot terbaru dan pertama di indonesia, anda dapat membeli jackpot dengan harga 100 rupiah saja dan menangkan hadiahnya hingga puluhan juta rupiah.

Jackpot bukanlah suatu keharusan untuk dibeli, namun kami memberikan suatu fitur tambahan untuk member tercinta dari www.jagoanpoker88.com.

Terdapat tiga pilihan harga jackpot yang bisa anda beli yaitu :100,500,1000 dan 2000(khusus table VIP Keatas) rupiah.

Hadiah dari Multi jackpot system www.jagoanpoker88.com

  1. full house x 10 harga jackpot yang anda beli.
      (contoh:anda membeli 1000 maka:1000 X10 = 10.000)
  2. four of kind x 250 harga jackpot yang anda beli
      (contoh:anda membeli 1000 maka:1000 X250 = 250.000)
  3. Straight flush x 1200
      (contoh:anda membeli 1000 maka:1000 X1200 = 1.200.000)
  4. Royal flush x 10000 harga jackpot yang anda beli
      (contoh:anda membeli 1000 maka:1000 X10000 = 10.000.000)
  5. SUPER ROYAL FLUSH x 30000 harga jackpot yang anda beli
      (contoh:anda membeli 1000 maka:1000 X30000 = 30.000.000)

Kondisi kartu

  1. full house adalah kondisi kartu dimana kartu anda dan kartu tengah dengan total 7 kartu bisa mendapatkan nilai 5 kartu dengan kombinasi 1 tris(three of kind) dan 1 pair, contoh 3 kartu 10 dan 2 kartu 5
  2. Four of kind adalah kondisi kartu dimana kartu anda dan kartu tengah dengan total 7 kartu bisa mendapatkan nilai 5 kartu dengan kombinasi 4 kartu yang sama jumlah dan 1 kartu apapun juga contoh anda mendapatkan 4 buah kartu angka 3 dan 1 kartu apapun.
  3. Staright flush adalah kondisi kartu dimana kartu anda dan kartu tengah dengan total 7 kartu bisa mendapatkan nilai 5 kartu dengan kombinasi seri / staright dengan kembang yang sama contoh : urutan kartu dari angka 5, 6, 7, 8 , 9 10 dengan kembang yg sama misalnya as hati
  4. Royal flush adalah kondisi kartu dimana kartu anda dan kartu tengah dengan total 7 kartu bisa mendapatkan nilai 5 kartu dengan kombinasi seri / staright dengan kembang yang sama tetapi kartu tersebut haruslah dimulai dari 10. contoh 10, Queen, Jack, King dan aces dengan kembang yang sama
  5. Super Royal flush adalah kondisi kartu dimana Kedua kartu anda digabung dengan 3 kartu pertama meja haruslah royal flush. contoh kartu anda 10,Queen kembang sama dan 3 kartu pertama meja adalah Jack, King dan aces dengan kembang yang sama

Demikian adalah penjelasan dari Multi Jackpot www.jagoanpoker88.com terima kasih dan selamat bermain salam hoki dari kami

Texas Poker Jackpot Winner

TOP SUPER ROYAL FLUSH
No.TanggalNamaPriceWin
122/06 00:16YAKUZA_27Super Royal flush15,000,000
221/06 23:57IZ625605Super Royal flush15,000,000
321/06 22:44RUBINI8Super Royal flush3,000,000
421/06 22:11CERKYSuper Royal flush6,000,000
521/06 21:35AAKDEDY15Super Royal flush15,000,000
TOP ROYAL FLUSH
No.TanggalNamaPriceWin
122/06 00:33NACOU7YEGJRoyal flush5,000,000
222/06 00:27IRVINEQQQ3Royal flush20,000,000
322/06 00:26LIMAUKUITRoyal flush2,000,000
422/06 00:24BONGKY16Royal flush1,000,000
522/06 00:23NGARTIMANRoyal flush1,000,000
TOP STRAIGHT FLUSH
No.TanggalNamaPriceWin
122/06 00:34KAUM12Straight Flush120,000
222/06 00:31ASP968Straight Flush240,000
322/06 00:31IDNGENO86Straight Flush120,000
422/06 00:31MJWJStraight Flush120,000
522/06 00:30BB4391EAStraight Flush240,000
LATEST JACKPOT
No.TanggalNamaPriceWin
122/06 00:35ISATUDUAFull House5,000
222/06 00:35PLGYANTIFull House10,000
322/06 00:35IYAD112Four Of A Kind500,000
422/06 00:35RADJA_66Full House10,000
522/06 00:35PLATINUM_4Full House1,000
622/06 00:35BOB_991Full House2,000
722/06 00:35BUSUKNIANNFull House1,000
822/06 00:35C0D002F3Full House2,000
922/06 00:35D5B52B3AFull House2,000
1022/06 00:35DOM226Full House1,000
1122/06 00:35M3G4T4NFull House2,000
1222/06 00:35IRHDDKBM56Full House10,000
1322/06 00:35WEKWEK29Full House5,000
1422/06 00:35HIDUN234Full House5,000
1522/06 00:35ATANGBEYEFull House5,000
1622/06 00:35DAYING123Four Of A Kind50,000
1722/06 00:35AKOY_HOKIFull House2,000
1822/06 00:35JANTI182Full House2,000
1922/06 00:35IONGSN2SO2Full House1,000
2022/06 00:35LADYROSE12Four Of A Kind50,000
2122/06 00:35KENDRIFull House1,000
2222/06 00:35ROYALJP31Full House5,000
2322/06 00:35YUNIT408Full House1,000
2422/06 00:35RTVH0FGQLHFull House5,000
2522/06 00:35SHINYO06Four Of A Kind125,000
2622/06 00:35SEMBOLE833Full House5,000
2722/06 00:35BEJUOFull House2,000
2822/06 00:35YADIKUTAI5Full House1,000
2922/06 00:35MAKANBANGGFull House5,000
3022/06 00:35SAUNI30Full House5,000
3122/06 00:35HOAX7Full House2,000
3222/06 00:35CAZNMKELTCFull House2,000
3322/06 00:35QWINSFull House20,000
3422/06 00:35APRILL01Full House2,000
3522/06 00:35ANDIKHA11Full House1,000
3622/06 00:35STEMPLET41Full House5,000
3722/06 00:35BHAYU25Full House500
3822/06 00:35SISKA223Full House1,000
3922/06 00:35KIRAENFour Of A Kind125,000
4022/06 00:35EXSUSFull House5,000
4122/06 00:35I99BAJWGH1Full House2,000
4222/06 00:35S7UUXT2298Full House2,000
4322/06 00:35RIMBA757Full House2,000
4422/06 00:35HANTUKUBURFour Of A Kind25,000
4522/06 00:35RM1415Full House5,000
4622/06 00:35DR7DMOMOPHINFull House5,000
4722/06 00:35LAKALOTIFull House20,000
4822/06 00:35MAMA600Full House2,000
4922/06 00:35VER0S99Full House10,000
5022/06 00:35E3E803EDFour Of A Kind25,000

Domino Multi Jackpot System

Ikutilah global jackpot yang tersedia di system kami, dengan system jackpot terbaru dan pertama di indonesia, anda dapat membeli jackpot dengan harga 100 rupiah saja dan menangkan hadiahnya hingga puluhan juta rupiah.

Jackpot bukanlah suatu keharusan untuk dibeli, namun kami memberikan suatu fitur tambahan untuk member tercinta dari www.jagoanpoker88.com.

Terdapat tiga pilihan harga jackpot yang bisa anda beli yaitu :100,500 dan 1000 rupiah.

Hadiah dari Multi jackpot system www.jagoanpoker88.com

  1. Murni Kecil x 50 harga jackpot yang anda beli.
      (contoh:anda membeli 1000 maka:1000 X 50 = 50.000)
  2. Murni Besar x 50 harga jackpot yang anda beli
      (contoh:anda membeli 1000 maka:1000 X 50 = 50.000)
  3. BALAK x 100 harga jackpot yang anda beli
      (contoh:anda membeli 1000 maka:1000 X 100 = 100.000)
  4. ENAM DEWA x 6666 harga jackpot yang anda beli
      (contoh:anda membeli 1000 maka:1000 X 6666 = 6.666.000)

Demikian adalah penjelasan dari Multi Jackpot www.jagoanpoker88.com terima kasih dan selamat bermain salam hoki dari kami

Domino Jackpot Winner

TOP ENAM DEWA
No.TanggalNamaPriceWin
122/06 00:21WEULINGmurni enam6,666,000
221/06 23:05ZHENK10murni enam6,666,000
321/06 22:14BANDIT1507murni enam3,333,000
421/06 22:10TULEM22murni enam3,333,000
521/06 21:48MASTERANUmurni enam6,666,000
TOP BALAK
No.TanggalNamaPriceWin
122/06 00:34ARIEF1717balak100,000
222/06 00:31KODRI01balak50,000
322/06 00:30DANIPKP123balak100,000
422/06 00:29B4173BCRbalak100,000
522/06 00:29NUE1609balak100,000
LATEST JACKPOT
No.TanggalNamaPriceWin
122/06 00:35DAMAI88murni kecil50,000
222/06 00:34FATMELAmurni besar25,000
322/06 00:34SUBH177murni kecil25,000
422/06 00:34ARIEF1717balak100,000
522/06 00:34IRSYAH99murni besar5,000
622/06 00:33LB993911murni kecil25,000
722/06 00:33MAHK0T4murni kecil50,000
822/06 00:33DODI891murni kecil50,000
922/06 00:32BUNCIS16murni kecil25,000
1022/06 00:32DW5UMTMWK3murni besar25,000
1122/06 00:32ABCREVAmurni kecil25,000
1222/06 00:31BOLOUSmurni kecil5,000
1322/06 00:31KODRI01balak50,000
1422/06 00:31DKYYmurni kecil50,000
1522/06 00:30POSUOK87murni kecil25,000
1622/06 00:30DANIPKP123balak100,000
1722/06 00:30GITAA21murni kecil50,000
1822/06 00:29WATUDEA008murni kecil25,000
1922/06 00:29WOWA88murni kecil5,000
2022/06 00:29B4173BCRbalak100,000
2122/06 00:29NUE1609balak100,000
2222/06 00:28BOGEL456murni besar5,000
2322/06 00:28FULLGHOSHmurni besar25,000
2422/06 00:28SEXKAUmurni besar50,000
2522/06 00:28KOPIDARATbalak10,000
2622/06 00:28AADRBAAD25balak50,000
2722/06 00:26ARIEF1717murni kecil50,000
2822/06 00:26JOYSPADE20murni kecil25,000
2922/06 00:26GITAA21murni besar50,000
3022/06 00:26SETIABGZmurni kecil50,000
3122/06 00:26ER314531murni besar5,000
3222/06 00:26SUI0704balak50,000
3322/06 00:25WOWA88balak10,000
3422/06 00:25AOOOOOmurni besar5,000
3522/06 00:25PLOSO99murni besar50,000
3622/06 00:25BEUNG3Kmurni kecil25,000
3722/06 00:24ABCREVAmurni besar25,000
3822/06 00:22BLUEDEVIL8murni kecil50,000
3922/06 00:22KOPIDARATmurni besar5,000
4022/06 00:22SEDOT2233lucky9925,000
4122/06 00:22LIUREMASmurni besar50,000
4222/06 00:21BAYU1766murni besar25,000
4322/06 00:21WEULINGmurni enam6,666,000
4422/06 00:21SHU07murni besar50,000
4522/06 00:21ONLINE2016murni besar25,000
4622/06 00:21OKTBER89murni besar25,000
4722/06 00:20CHOLVYJNRmurni besar25,000
4822/06 00:20WATUDEA008murni besar25,000
4922/06 00:20STIRJUGAmurni kecil50,000
5022/06 00:20SIKVEA3GLZmurni besar50,000

Ceme Multi Jackpot System

Jackpot dilihat dari gabungan kartu pemain dengan kartu bandar. Bandar harus membeli jackpot sebanyak jumlah player yang sedang duduk. Sebagai contoh bila terdapat 3 pemain duduk bermain, dan bandar memutuskan untuk membeli jackpot Rp 1.000, maka pada periode tersebut bandar akan membeli jackpot sebanyak 3xRp1.000 = Rp3.000.

Jackpot bukanlah suatu keharusan untuk dibeli, namun kami memberikan suatu fitur tambahan untuk member tercinta dari www.jagoanpoker88.com.

Terdapat tiga pilihan harga jackpot yang bisa anda beli yaitu :100,500 dan 1000 rupiah.

Hadiah dari Multi jackpot system www.jagoanpoker88.com

  1. Murni Kecil x 50 harga jackpot yang anda beli.
      (contoh:anda membeli 1000 maka:1000 X 50 = 50.000)
  2. Murni Besar x 50 harga jackpot yang anda beli
      (contoh:anda membeli 1000 maka:1000 X 50 = 50.000)
  3. BALAK x 200 harga jackpot yang anda beli
      (contoh:anda membeli 1000 maka:1000 X 200 = 200.000)
  4. ENAM DEWA x 6666 harga jackpot yang anda beli
      (contoh:anda membeli 1000 maka:1000 X 6666 = 6.666.000)

Demikian adalah penjelasan dari Multi Jackpot www.jagoanpoker88.com terima kasih dan selamat bermain salam hoki dari kami

Ceme Jackpot Winner

TOP ENAM DEWA
No.TanggalNamaPriceWin
122/06 00:11KASUS127murni enam3,333,000
222/06 00:11MQQSOC6FFEmurni enam666,600
322/06 00:03C4MPUR_ESCmurni enam3,333,000
421/06 23:54BAVOAmurni enam666,600
521/06 23:52KRUING66murni enam6,666,000
TOP BALAK
No.TanggalNamaPriceWin
122/06 00:35AGUNGSDYbalak100,000
222/06 00:34DEAL22balak20,000
322/06 00:34BIRU168balak100,000
422/06 00:34STRIKER_77balak100,000
522/06 00:34JET2727balak100,000
LATEST JACKPOT
No.TanggalNamaPriceWin
122/06 00:35RASENDR1YAmurni besar50,000
222/06 00:35BATGOLD10murni besar50,000
322/06 00:35IWANGBOImurni kecil5,000
422/06 00:35JAKES87murni besar50,000
522/06 00:35TRISNODRTmurni besar50,000
622/06 00:35FIKI02LGNmurni kecil5,000
722/06 00:35AGUNGSDYbalak100,000
822/06 00:35BDES99murni kecil50,000
922/06 00:35177024murni besar5,000
1022/06 00:35AHOT666murni besar5,000
1122/06 00:35SMOGAJOSmurni besar5,000
1222/06 00:35HAMPANG81murni besar50,000
1322/06 00:35ILHAMAJI35murni kecil25,000
1422/06 00:35B18ENZO24249murni kecil50,000
1522/06 00:35WANDS3633murni kecil50,000
1622/06 00:34DEAL22balak20,000
1722/06 00:34RYANP2311murni kecil50,000
1822/06 00:34BIRU168balak100,000
1922/06 00:34STRIKER_77balak100,000
2022/06 00:34O8Y9Z8FY8Lmurni besar50,000
2122/06 00:34APRAK99murni besar50,000
2222/06 00:34ZACKY317murni kecil5,000
2322/06 00:34JASYARAmurni besar5,000
2422/06 00:34JET2727balak100,000
2522/06 00:34BOEL789murni kecil5,000
2622/06 00:34ADOET338murni kecil50,000
2722/06 00:34OR4JPbalak200,000
2822/06 00:34SANTO89balak200,000
2922/06 00:34NONAAAAmurni besar5,000
3022/06 00:34THOLIB377murni kecil50,000
3122/06 00:34ASH3NG88murni kecil25,000
3222/06 00:34RFXIOKERRXmurni kecil50,000
3322/06 00:34MBAHHERU12murni kecil50,000
3422/06 00:33WENDWEND30murni besar25,000
3522/06 00:33OR4JPbalak200,000
3622/06 00:33ALOENG26balak20,000
3722/06 00:33OR4JPmurni kecil50,000
3822/06 00:33B132473Dmurni kecil50,000
3922/06 00:33MIJASSUTRAbalak200,000
4022/06 00:33MRX2321balak20,000
4122/06 00:33MIJASSUTRAbalak200,000
4222/06 00:33IRMA455balak200,000
4322/06 00:33HERO_779balak200,000
4422/06 00:33QMHGYI9OWZmurni kecil25,000
4522/06 00:33HOKYDONG27murni kecil25,000
4622/06 00:33NASIONAL1murni besar25,000
4722/06 00:33JAJANAN333balak200,000
4822/06 00:33SVVIPbalak200,000
4922/06 00:33YESJOS777balak200,000
5022/06 00:32MROHMANbalak20,000